contact:dominique.lefevre@mio.osupytheas.fr, maurice.libes@osupytheas.fr, didier.mallarino@osupytheas.fr
Project:EMSO http://www.emso-fr.org/EMSO-France
Depth: 2436.0 m
Title:EMSO Ligure Ouest : Data MII capteur MICROCAT
DateTime_Computer,Latitude,Longitude,Temperature,Conductivity,Pressure,DateTime_Instrument
DateTime_Computer,Latitude,Longitude,degC,S m-1,dbar,DateTime_Instrument
2021-07-14T00:02:01Z,42.805,6.029,13.3035,4.60095,2470.483,2021-7-14T02:03:17Z
2021-07-14T00:05:05Z,42.805,6.029,13.3006,4.60084,2470.497,2021-7-14T02:06:20Z
2021-07-14T00:08:08Z,42.805,6.029,13.3015,4.60069,2470.483,2021-7-14T02:09:23Z
2021-07-14T00:11:11Z,42.805,6.029,13.3011,4.60119,2470.497,2021-7-14T02:12:27Z
2021-07-14T00:14:14Z,42.805,6.029,13.3014,4.60082,2470.497,2021-7-14T02:15:30Z
2021-07-14T00:17:17Z,42.805,6.029,13.3024,4.60078,2470.52,2021-7-14T02:18:33Z
2021-07-14T00:20:20Z,42.805,6.029,13.3010,4.60137,2470.483,2021-7-14T02:21:36Z
2021-07-14T00:23:23Z,42.805,6.029,13.3019,4.60106,2470.497,2021-7-14T02:24:39Z
2021-07-14T00:26:26Z,42.805,6.029,13.3007,4.60067,2470.474,2021-7-14T02:27:42Z
2021-07-14T00:29:29Z,42.805,6.029,13.3008,4.60095,2470.474,2021-7-14T02:30:45Z
2021-07-14T00:32:33Z,42.805,6.029,13.3018,4.60038,2470.52,2021-7-14T02:33:48Z
2021-07-14T00:35:36Z,42.805,6.029,13.3010,4.60063,2470.45,2021-7-14T02:36:52Z
2021-07-14T00:38:39Z,42.805,6.029,13.3004,4.60085,2470.437,2021-7-14T02:39:55Z
2021-07-14T00:41:42Z,42.805,6.029,13.3009,4.60080,2470.46,2021-7-14T02:42:58Z
2021-07-14T00:44:45Z,42.805,6.029,13.3004,4.60081,2470.474,2021-7-14T02:46:01Z
2021-07-14T00:47:48Z,42.805,6.029,13.3006,4.60074,2470.437,2021-7-14T02:49:04Z
2021-07-14T00:50:51Z,42.805,6.029,13.3010,4.60100,2470.437,2021-7-14T02:52:07Z
2021-07-14T00:53:54Z,42.805,6.029,13.3011,4.60087,2470.497,2021-7-14T02:55:10Z
2021-07-14T00:56:58Z,42.805,6.029,13.3000,4.60099,2470.46,2021-7-14T02:58:13Z
2021-07-14T01:00:01Z,42.805,6.029,13.2999,4.60094,2470.437,2021-7-14T03:01:17Z
2021-07-14T01:03:04Z,42.805,6.029,13.3009,4.60064,2470.45,2021-7-14T03:04:20Z
2021-07-14T01:06:07Z,42.805,6.029,13.3009,4.60051,2470.413,2021-7-14T03:07:23Z
2021-07-14T01:09:10Z,42.805,6.029,13.3006,4.60057,2470.46,2021-7-14T03:10:26Z
2021-07-14T01:12:13Z,42.805,6.029,13.3019,4.60067,2470.437,2021-7-14T03:13:29Z
2021-07-14T01:15:16Z,42.805,6.029,13.3007,4.60046,2470.45,2021-7-14T03:16:32Z
2021-07-14T01:18:19Z,42.805,6.029,13.3002,4.60046,2470.46,2021-7-14T03:19:35Z
2021-07-14T01:21:23Z,42.805,6.029,13.3015,4.60043,2470.46,2021-7-14T03:22:38Z
2021-07-14T01:24:26Z,42.805,6.029,13.3014,4.60038,2470.427,2021-7-14T03:25:42Z
2021-07-14T01:27:29Z,42.805,6.029,13.3023,4.60046,2470.437,2021-7-14T03:28:45Z
2021-07-14T01:30:32Z,42.805,6.029,13.3007,4.60069,2470.399,2021-7-14T03:31:48Z
2021-07-14T01:33:35Z,42.805,6.029,13.3007,4.60056,2470.427,2021-7-14T03:34:51Z
2021-07-14T01:36:38Z,42.805,6.029,13.3006,4.60087,2470.437,2021-7-14T03:37:54Z
2021-07-14T01:39:41Z,42.805,6.029,13.3016,4.60078,2470.413,2021-7-14T03:40:57Z
2021-07-14T01:42:44Z,42.805,6.029,13.3009,4.60086,2470.404,2021-7-14T03:44:00Z
2021-07-14T01:45:48Z,42.805,6.029,13.3015,4.60077,2470.45,2021-7-14T03:47:03Z
2021-07-14T01:48:51Z,42.805,6.029,13.3005,4.60063,2470.437,2021-7-14T03:50:07Z
2021-07-14T01:51:54Z,42.805,6.029,13.3014,4.60087,2470.427,2021-7-14T03:53:10Z
2021-07-14T01:54:57Z,42.805,6.029,13.3000,4.60076,2470.404,2021-7-14T03:56:13Z
2021-07-14T01:58:00Z,42.805,6.029,13.3004,4.60090,2470.39,2021-7-14T03:59:16Z
2021-07-14T02:01:03Z,42.805,6.029,13.3013,4.60069,2470.45,2021-7-14T04:02:19Z
2021-07-14T02:04:06Z,42.805,6.029,13.3014,4.60071,2470.413,2021-7-14T04:05:22Z
2021-07-14T02:07:09Z,42.805,6.029,13.3024,4.60066,2470.413,2021-7-14T04:08:25Z
2021-07-14T02:10:13Z,42.805,6.029,13.3031,4.60117,2470.404,2021-7-14T04:11:28Z
2021-07-14T02:13:16Z,42.805,6.029,13.3025,4.60052,2470.366,2021-7-14T04:14:32Z
2021-07-14T02:16:19Z,42.805,6.029,13.3011,4.60054,2470.404,2021-7-14T04:17:35Z
2021-07-14T02:19:22Z,42.805,6.029,13.3015,4.60099,2470.366,2021-7-14T04:20:38Z
2021-07-14T02:22:25Z,42.805,6.029,13.3028,4.60086,2470.427,2021-7-14T04:23:41Z
2021-07-14T02:25:28Z,42.805,6.029,13.3017,4.60096,2470.39,2021-7-14T04:26:44Z
2021-07-14T02:28:31Z,42.805,6.029,13.3000,4.60094,2470.413,2021-7-14T04:29:47Z
2021-07-14T02:31:34Z,42.805,6.029,13.3020,4.60058,2470.38,2021-7-14T04:32:50Z
2021-07-14T02:34:38Z,42.805,6.029,13.3023,4.60064,2470.39,2021-7-14T04:35:53Z
2021-07-14T02:37:41Z,42.805,6.029,13.3030,4.60078,2470.413,2021-7-14T04:38:57Z
2021-07-14T02:40:44Z,42.805,6.029,13.3032,4.60040,2470.38,2021-7-14T04:42:00Z
2021-07-14T02:43:47Z,42.805,6.029,13.3034,4.60054,2470.45,2021-7-14T04:45:03Z
2021-07-14T02:46:50Z,42.805,6.029,13.3028,4.60057,2470.366,2021-7-14T04:48:06Z
2021-07-14T02:49:53Z,42.805,6.029,13.3024,4.60087,2470.357,2021-7-14T04:51:09Z
2021-07-14T02:52:56Z,42.805,6.029,13.3027,4.60029,2470.39,2021-7-14T04:54:12Z
2021-07-14T02:55:59Z,42.805,6.029,13.3021,4.60026,2470.38,2021-7-14T04:57:15Z
2021-07-14T02:59:03Z,42.805,6.029,13.3011,4.60073,2470.357,2021-7-14T05:00:18Z
2021-07-14T03:02:06Z,42.805,6.029,13.3033,4.60031,2470.357,2021-7-14T05:03:22Z
2021-07-14T03:05:09Z,42.805,6.029,13.3039,4.60047,2470.38,2021-7-14T05:06:25Z
2021-07-14T03:08:12Z,42.805,6.029,13.3051,4.60067,2470.38,2021-7-14T05:09:28Z
2021-07-14T03:11:15Z,42.805,6.029,13.3048,4.60078,2470.32,2021-7-14T05:12:31Z
2021-07-14T03:14:18Z,42.805,6.029,13.3041,4.60044,2470.404,2021-7-14T05:15:34Z
2021-07-14T03:17:21Z,42.805,6.029,13.3061,4.60067,2470.366,2021-7-14T05:18:37Z
2021-07-14T03:20:24Z,42.805,6.029,13.3061,4.60044,2470.32,2021-7-14T05:21:40Z
2021-07-14T03:23:28Z,42.805,6.029,13.3004,4.60030,2470.357,2021-7-14T05:24:43Z
2021-07-14T03:26:31Z,42.805,6.029,13.3017,4.60064,2470.38,2021-7-14T05:27:47Z
2021-07-14T03:29:34Z,42.805,6.029,13.3017,4.60108,2470.343,2021-7-14T05:30:50Z
2021-07-14T03:32:37Z,42.805,6.029,13.3024,4.60064,2470.343,2021-7-14T05:33:53Z
2021-07-14T03:35:40Z,42.805,6.029,13.3034,4.60073,2470.343,2021-7-14T05:36:56Z
2021-07-14T03:38:43Z,42.805,6.029,13.3054,4.60040,2470.38,2021-7-14T05:39:59Z
2021-07-14T03:41:46Z,42.805,6.029,13.3075,4.60021,2470.343,2021-7-14T05:43:02Z
2021-07-14T03:44:49Z,42.805,6.029,13.3026,4.60028,2470.343,2021-7-14T05:46:05Z
2021-07-14T03:47:53Z,42.805,6.029,13.3043,4.60046,2470.334,2021-7-14T05:49:08Z
2021-07-14T03:50:56Z,42.805,6.029,13.3054,4.60067,2470.343,2021-7-14T05:52:12Z
2021-07-14T03:53:59Z,42.805,6.029,13.3050,4.60078,2470.366,2021-7-14T05:55:15Z
2021-07-14T03:57:02Z,42.805,6.029,13.3041,4.60084,2470.357,2021-7-14T05:58:18Z
2021-07-14T04:00:05Z,42.805,6.029,13.3055,4.60089,2470.297,2021-7-14T06:01:21Z
2021-07-14T04:03:08Z,42.805,6.029,13.3048,4.60070,2470.357,2021-7-14T06:04:24Z
2021-07-14T04:06:11Z,42.805,6.029,13.3046,4.60069,2470.343,2021-7-14T06:07:27Z
2021-07-14T04:09:14Z,42.805,6.029,13.3048,4.60062,2470.343,2021-7-14T06:10:30Z
2021-07-14T04:12:18Z,42.805,6.029,13.3053,4.60049,2470.334,2021-7-14T06:13:33Z
2021-07-14T04:15:21Z,42.805,6.029,13.3064,4.60042,2470.334,2021-7-14T06:16:37Z
2021-07-14T04:18:24Z,42.805,6.029,13.3051,4.60046,2470.32,2021-7-14T06:19:40Z
2021-07-14T04:21:27Z,42.805,6.029,13.3061,4.60040,2470.357,2021-7-14T06:22:43Z
2021-07-14T04:24:30Z,42.805,6.029,13.3045,4.60026,2470.334,2021-7-14T06:25:46Z
2021-07-14T04:27:33Z,42.805,6.029,13.3029,4.60023,2470.343,2021-7-14T06:28:49Z
2021-07-14T04:30:36Z,42.805,6.029,13.3031,4.60016,2470.357,2021-7-14T06:31:52Z
2021-07-14T04:33:39Z,42.805,6.029,13.3030,4.60027,2470.334,2021-7-14T06:34:55Z
2021-07-14T04:36:43Z,42.805,6.029,13.3023,4.60054,2470.343,2021-7-14T06:37:58Z
2021-07-14T04:39:46Z,42.805,6.029,13.3023,4.60033,2470.343,2021-7-14T06:41:02Z
2021-07-14T04:42:49Z,42.805,6.029,13.3024,4.60035,2470.357,2021-7-14T06:44:05Z
2021-07-14T04:45:52Z,42.805,6.029,13.3018,4.60024,2470.334,2021-7-14T06:47:08Z
2021-07-14T04:48:55Z,42.805,6.029,13.3026,4.60025,2470.357,2021-7-14T06:50:11Z
2021-07-14T04:51:58Z,42.805,6.029,13.3025,4.60025,2470.31,2021-7-14T06:53:14Z
2021-07-14T04:55:01Z,42.805,6.029,13.3024,4.60033,2470.334,2021-7-14T06:56:17Z
2021-07-14T04:58:04Z,42.805,6.029,13.3031,4.60041,2470.297,2021-7-14T06:59:20Z
2021-07-14T05:01:08Z,42.805,6.029,13.3032,4.60044,2470.334,2021-7-14T07:02:23Z
2021-07-14T05:04:11Z,42.805,6.029,13.3016,4.60051,2470.343,2021-7-14T07:05:27Z
2021-07-14T05:07:14Z,42.805,6.029,13.3026,4.60062,2470.357,2021-7-14T07:08:30Z
2021-07-14T05:10:17Z,42.805,6.029,13.3038,4.60040,2470.297,2021-7-14T07:11:33Z
2021-07-14T05:13:20Z,42.805,6.029,13.3040,4.60023,2470.334,2021-7-14T07:14:36Z
2021-07-14T05:16:23Z,42.805,6.029,13.3044,4.60017,2470.334,2021-7-14T07:17:39Z
2021-07-14T05:19:26Z,42.805,6.029,13.3040,4.60016,2470.32,2021-7-14T07:20:42Z
2021-07-14T05:22:29Z,42.805,6.029,13.3021,4.60041,2470.334,2021-7-14T07:23:45Z
2021-07-14T05:25:33Z,42.805,6.029,13.3013,4.60033,2470.297,2021-7-14T07:26:48Z
2021-07-14T05:28:36Z,42.805,6.029,13.3016,4.60021,2470.334,2021-7-14T07:29:52Z
2021-07-14T05:31:39Z,42.805,6.029,13.3021,4.60008,2470.32,2021-7-14T07:32:55Z
2021-07-14T05:34:42Z,42.805,6.029,13.3017,4.60011,2470.283,2021-7-14T07:35:58Z
2021-07-14T05:37:45Z,42.805,6.029,13.3020,4.60010,2470.334,2021-7-14T07:39:01Z
2021-07-14T05:40:48Z,42.805,6.029,13.3014,4.60011,2470.343,2021-7-14T07:42:04Z
2021-07-14T05:43:51Z,42.805,6.029,13.3015,4.60013,2470.347,2021-7-14T07:45:07Z
2021-07-14T05:46:54Z,42.805,6.029,13.3019,4.60014,2470.334,2021-7-14T07:48:10Z
2021-07-14T05:49:58Z,42.805,6.029,13.3007,4.60014,2470.32,2021-7-14T07:51:13Z
2021-07-14T05:53:01Z,42.805,6.029,13.3005,4.60011,2470.343,2021-7-14T07:54:17Z
2021-07-14T05:56:04Z,42.805,6.029,13.3002,4.60026,2470.334,2021-7-14T07:57:20Z
2021-07-14T05:59:07Z,42.805,6.029,13.3001,4.60056,2470.357,2021-7-14T08:00:23Z
2021-07-14T06:02:10Z,42.805,6.029,13.3011,4.60045,2470.357,2021-7-14T08:03:26Z
2021-07-14T06:05:13Z,42.805,6.029,13.3009,4.60024,2470.38,2021-7-14T08:06:29Z
2021-07-14T06:08:16Z,42.805,6.029,13.3019,4.60020,2470.334,2021-7-14T08:09:32Z
2021-07-14T06:11:19Z,42.805,6.029,13.3014,4.60016,2470.334,2021-7-14T08:12:35Z
2021-07-14T06:14:23Z,42.805,6.029,13.3014,4.60017,2470.38,2021-7-14T08:15:38Z
2021-07-14T06:17:26Z,42.805,6.029,13.3008,4.60017,2470.343,2021-7-14T08:18:42Z
2021-07-14T06:20:29Z,42.805,6.029,13.3013,4.60011,2470.343,2021-7-14T08:21:45Z
2021-07-14T06:23:32Z,42.805,6.029,13.3014,4.60009,2470.334,2021-7-14T08:24:48Z
2021-07-14T06:26:35Z,42.805,6.029,13.3016,4.60014,2470.31,2021-7-14T08:27:51Z
2021-07-14T06:29:38Z,42.805,6.029,13.3021,4.60008,2470.357,2021-7-14T08:30:54Z
2021-07-14T06:32:41Z,42.805,6.029,13.3011,4.60006,2470.357,2021-7-14T08:33:57Z
2021-07-14T06:35:44Z,42.805,6.029,13.3010,4.60001,2470.357,2021-7-14T08:37:00Z
2021-07-14T06:38:47Z,42.805,6.029,13.3013,4.60006,2470.357,2021-7-14T08:40:03Z
2021-07-14T06:41:51Z,42.805,6.029,13.3005,4.60002,2470.366,2021-7-14T08:43:06Z
2021-07-14T06:44:54Z,42.805,6.029,13.3003,4.60003,2470.366,2021-7-14T08:46:10Z
2021-07-14T06:47:57Z,42.805,6.029,13.3014,4.60007,2470.343,2021-7-14T08:49:13Z
2021-07-14T06:51:00Z,42.805,6.029,13.3005,4.60003,2470.38,2021-7-14T08:52:16Z
2021-07-14T06:54:03Z,42.805,6.029,13.3009,4.60003,2470.343,2021-7-14T08:55:19Z
2021-07-14T06:57:06Z,42.805,6.029,13.2996,4.60014,2470.366,2021-7-14T08:58:22Z
2021-07-14T07:00:09Z,42.805,6.029,13.2991,4.60020,2470.38,2021-7-14T09:01:25Z
2021-07-14T07:03:12Z,42.805,6.029,13.2993,4.60011,2470.38,2021-7-14T09:04:28Z
2021-07-14T07:06:16Z,42.805,6.029,13.2990,4.60014,2470.343,2021-7-14T09:07:31Z
2021-07-14T07:09:19Z,42.805,6.029,13.2990,4.60001,2470.38,2021-7-14T09:10:35Z
2021-07-14T07:12:22Z,42.805,6.029,13.2993,4.60004,2470.404,2021-7-14T09:13:38Z
2021-07-14T07:15:25Z,42.805,6.029,13.2994,4.60005,2470.404,2021-7-14T09:16:41Z
2021-07-14T07:18:28Z,42.805,6.029,13.2994,4.60014,2470.366,2021-7-14T09:19:44Z
2021-07-14T07:21:31Z,42.805,6.029,13.2991,4.60000,2470.404,2021-7-14T09:22:47Z
2021-07-14T07:24:34Z,42.805,6.029,13.2992,4.60001,2470.404,2021-7-14T09:25:50Z
2021-07-14T07:27:38Z,42.805,6.029,13.2993,4.59999,2470.404,2021-7-14T09:28:53Z
2021-07-14T07:30:41Z,42.805,6.029,13.2990,4.60003,2470.404,2021-7-14T09:31:57Z
2021-07-14T07:33:44Z,42.805,6.029,13.2992,4.60006,2470.413,2021-7-14T09:35:00Z
2021-07-14T07:36:47Z,42.805,6.029,13.2996,4.60001,2470.39,2021-7-14T09:38:03Z
2021-07-14T07:39:50Z,42.805,6.029,13.2998,4.59999,2470.404,2021-7-14T09:41:06Z
2021-07-14T07:42:53Z,42.805,6.029,13.2998,4.60000,2470.39,2021-7-14T09:44:09Z
2021-07-14T07:45:56Z,42.805,6.029,13.2990,4.60003,2470.39,2021-7-14T09:47:12Z
2021-07-14T07:48:59Z,42.805,6.029,13.2998,4.60001,2470.413,2021-7-14T09:50:15Z
2021-07-14T07:52:02Z,42.805,6.029,13.2998,4.60001,2470.413,2021-7-14T09:53:18Z
2021-07-14T07:55:06Z,42.805,6.029,13.2995,4.60000,2470.413,2021-7-14T09:56:21Z
2021-07-14T07:58:09Z,42.805,6.029,13.2996,4.60001,2470.38,2021-7-14T09:59:25Z
2021-07-14T08:01:12Z,42.805,6.029,13.2998,4.60001,2470.39,2021-7-14T10:02:28Z
2021-07-14T08:04:15Z,42.805,6.029,13.2995,4.60000,2470.417,2021-7-14T10:05:31Z
2021-07-14T08:07:18Z,42.805,6.029,13.2990,4.60001,2470.413,2021-7-14T10:08:34Z
2021-07-14T08:10:21Z,42.805,6.029,13.2992,4.60002,2470.427,2021-7-14T10:11:37Z
2021-07-14T08:13:24Z,42.805,6.029,13.2993,4.60001,2470.39,2021-7-14T10:14:40Z
2021-07-14T08:16:28Z,42.805,6.029,13.2988,4.60010,2470.404,2021-7-14T10:17:43Z
2021-07-14T08:19:31Z,42.805,6.029,13.2990,4.60001,2470.413,2021-7-14T10:20:47Z
2021-07-14T08:22:34Z,42.805,6.029,13.2988,4.60003,2470.413,2021-7-14T10:23:50Z
2021-07-14T08:25:37Z,42.805,6.029,13.2988,4.60013,2470.437,2021-7-14T10:26:53Z
2021-07-14T08:28:40Z,42.805,6.029,13.2990,4.60005,2470.45,2021-7-14T10:29:56Z
2021-07-14T08:31:43Z,42.805,6.029,13.2991,4.60006,2470.427,2021-7-14T10:32:59Z
2021-07-14T08:34:46Z,42.805,6.029,13.2990,4.60001,2470.45,2021-7-14T10:36:02Z
2021-07-14T08:37:49Z,42.805,6.029,13.2993,4.60014,2470.437,2021-7-14T10:39:05Z
2021-07-14T08:40:53Z,42.805,6.029,13.2990,4.60004,2470.46,2021-7-14T10:42:08Z
2021-07-14T08:43:56Z,42.805,6.029,13.2990,4.60004,2470.413,2021-7-14T10:45:12Z
2021-07-14T08:46:59Z,42.805,6.029,13.2990,4.60003,2470.413,2021-7-14T10:48:15Z
2021-07-14T08:50:02Z,42.805,6.029,13.2993,4.60003,2470.474,2021-7-14T10:51:18Z
2021-07-14T08:53:05Z,42.805,6.029,13.2990,4.60002,2470.45,2021-7-14T10:54:21Z
2021-07-14T08:56:08Z,42.805,6.029,13.2991,4.59999,2470.437,2021-7-14T10:57:24Z
2021-07-14T08:59:11Z,42.805,6.029,13.2992,4.60003,2470.46,2021-7-14T11:00:27Z
2021-07-14T09:02:14Z,42.805,6.029,13.2986,4.60001,2470.437,2021-7-14T11:03:30Z
2021-07-14T09:05:18Z,42.805,6.029,13.2986,4.59999,2470.427,2021-7-14T11:06:33Z
2021-07-14T09:08:21Z,42.805,6.029,13.2991,4.59999,2470.437,2021-7-14T11:09:37Z
2021-07-14T09:11:24Z,42.805,6.029,13.2989,4.59999,2470.45,2021-7-14T11:12:40Z
2021-07-14T09:14:27Z,42.805,6.029,13.2990,4.60002,2470.427,2021-7-14T11:15:43Z
2021-07-14T09:17:30Z,42.805,6.029,13.2990,4.60003,2470.427,2021-7-14T11:18:46Z
2021-07-14T09:20:33Z,42.805,6.029,13.2991,4.60005,2470.413,2021-7-14T11:21:49Z
2021-07-14T09:23:36Z,42.805,6.029,13.2990,4.60005,2470.45,2021-7-14T11:24:52Z
2021-07-14T09:26:39Z,42.805,6.029,13.2986,4.60001,2470.45,2021-7-14T11:27:55Z
2021-07-14T09:29:43Z,42.805,6.029,13.2987,4.60007,2470.437,2021-7-14T11:30:58Z
2021-07-14T09:32:46Z,42.805,6.029,13.2984,4.60003,2470.437,2021-7-14T11:34:02Z
2021-07-14T09:35:49Z,42.805,6.029,13.2986,4.60014,2470.437,2021-7-14T11:37:05Z
2021-07-14T09:38:52Z,42.805,6.029,13.2990,4.60000,2470.45,2021-7-14T11:40:08Z
2021-07-14T09:41:55Z,42.805,6.029,13.2990,4.60002,2470.45,2021-7-14T11:43:11Z
2021-07-14T09:44:58Z,42.805,6.029,13.2985,4.60001,2470.45,2021-7-14T11:46:14Z
2021-07-14T09:48:01Z,42.805,6.029,13.2986,4.60003,2470.437,2021-7-14T11:49:17Z
2021-07-14T09:51:04Z,42.805,6.029,13.2986,4.60001,2470.46,2021-7-14T11:52:20Z
2021-07-14T09:54:08Z,42.805,6.029,13.2993,4.60003,2470.437,2021-7-14T11:55:24Z
2021-07-14T09:57:11Z,42.805,6.029,13.2986,4.60004,2470.45,2021-7-14T11:58:27Z
2021-07-14T10:00:14Z,42.805,6.029,13.2988,4.60002,2470.437,2021-7-14T12:01:30Z
2021-07-14T10:03:17Z,42.805,6.029,13.2990,4.60001,2470.413,2021-7-14T12:04:33Z
2021-07-14T10:06:20Z,42.805,6.029,13.2993,4.60003,2470.413,2021-7-14T12:07:36Z
2021-07-14T10:09:23Z,42.805,6.029,13.2992,4.60003,2470.39,2021-7-14T12:10:39Z
2021-07-14T10:12:26Z,42.805,6.029,13.2991,4.60005,2470.427,2021-7-14T12:13:42Z
2021-07-14T10:15:30Z,42.805,6.029,13.2988,4.60003,2470.413,2021-7-14T12:16:45Z
2021-07-14T10:18:33Z,42.805,6.029,13.2992,4.60003,2470.437,2021-7-14T12:19:49Z
2021-07-14T10:21:36Z,42.805,6.029,13.2986,4.60002,2470.413,2021-7-14T12:22:52Z
2021-07-14T10:24:39Z,42.805,6.029,13.2990,4.60015,2470.437,2021-7-14T12:25:55Z
2021-07-14T10:27:42Z,42.805,6.029,13.2987,4.60006,2470.413,2021-7-14T12:28:58Z
2021-07-14T10:30:45Z,42.805,6.029,13.2991,4.60015,2470.45,2021-7-14T12:32:01Z
2021-07-14T10:33:48Z,42.805,6.029,13.2990,4.60009,2470.45,2021-7-14T12:35:04Z
2021-07-14T10:36:51Z,42.805,6.029,13.2986,4.60002,2470.427,2021-7-14T12:38:07Z
2021-07-14T10:39:55Z,42.805,6.029,13.2990,4.60008,2470.39,2021-7-14T12:41:10Z
2021-07-14T10:42:58Z,42.805,6.029,13.2988,4.60009,2470.413,2021-7-14T12:44:14Z
2021-07-14T10:46:01Z,42.805,6.029,13.2990,4.60006,2470.45,2021-7-14T12:47:17Z
2021-07-14T10:49:04Z,42.805,6.029,13.2990,4.60010,2470.437,2021-7-14T12:50:20Z
2021-07-14T10:52:07Z,42.805,6.029,13.2993,4.60015,2470.413,2021-7-14T12:53:23Z
2021-07-14T10:55:10Z,42.805,6.029,13.2993,4.60010,2470.45,2021-7-14T12:56:26Z
2021-07-14T10:58:13Z,42.805,6.029,13.2991,4.60009,2470.427,2021-7-14T12:59:29Z
2021-07-14T11:01:16Z,42.805,6.029,13.2991,4.60006,2470.413,2021-7-14T13:02:32Z
2021-07-14T11:04:20Z,42.805,6.029,13.2991,4.60013,2470.39,2021-7-14T13:05:35Z
2021-07-14T11:07:23Z,42.805,6.029,13.2990,4.60019,2470.427,2021-7-14T13:08:39Z
2021-07-14T11:10:26Z,42.805,6.029,13.2991,4.60016,2470.427,2021-7-14T13:11:42Z
2021-07-14T11:13:29Z,42.805,6.029,13.2990,4.60016,2470.427,2021-7-14T13:14:45Z
2021-07-14T11:16:32Z,42.805,6.029,13.2992,4.60011,2470.427,2021-7-14T13:17:48Z
2021-07-14T11:19:35Z,42.805,6.029,13.2991,4.60013,2470.413,2021-7-14T13:20:51Z
2021-07-14T11:22:38Z,42.805,6.029,13.2990,4.60012,2470.427,2021-7-14T13:23:54Z
2021-07-14T11:25:41Z,42.805,6.029,13.2989,4.60014,2470.404,2021-7-14T13:26:57Z
2021-07-14T11:28:45Z,42.805,6.029,13.2986,4.60016,2470.45,2021-7-14T13:30:00Z
2021-07-14T11:31:48Z,42.805,6.029,13.2987,4.60016,2470.427,2021-7-14T13:33:04Z
2021-07-14T11:34:51Z,42.805,6.029,13.2998,4.60016,2470.404,2021-7-14T13:36:07Z
2021-07-14T11:37:54Z,42.805,6.029,13.2990,4.60016,2470.427,2021-7-14T13:39:10Z
2021-07-14T11:40:57Z,42.805,6.029,13.2998,4.60014,2470.404,2021-7-14T13:42:13Z
2021-07-14T11:44:00Z,42.805,6.029,13.2990,4.60011,2470.413,2021-7-14T13:45:16Z
2021-07-14T11:47:03Z,42.805,6.029,13.2999,4.60007,2470.39,2021-7-14T13:48:19Z
2021-07-14T11:50:06Z,42.805,6.029,13.2998,4.60009,2470.39,2021-7-14T13:51:22Z
2021-07-14T11:53:10Z,42.805,6.029,13.3017,4.60033,2470.404,2021-7-14T13:54:25Z
2021-07-14T11:56:13Z,42.805,6.029,13.3051,4.60059,2470.404,2021-7-14T13:57:29Z
2021-07-14T11:59:16Z,42.805,6.029,13.3070,4.60016,2470.413,2021-7-14T14:00:32Z
2021-07-14T12:02:19Z,42.805,6.029,13.3034,4.60032,2470.366,2021-7-14T14:03:35Z
2021-07-14T12:05:22Z,42.805,6.029,13.3029,4.60031,2470.413,2021-7-14T14:06:38Z
2021-07-14T12:08:25Z,42.805,6.029,13.3048,4.60028,2470.366,2021-7-14T14:09:41Z
2021-07-14T12:11:28Z,42.805,6.029,13.3011,4.60006,2470.427,2021-7-14T14:12:44Z
2021-07-14T12:14:31Z,42.805,6.029,13.3011,4.60022,2470.39,2021-7-14T14:15:47Z
2021-07-14T12:17:35Z,42.805,6.029,13.2991,4.60021,2470.366,2021-7-14T14:18:51Z
2021-07-14T12:20:38Z,42.805,6.029,13.2996,4.60019,2470.353,2021-7-14T14:21:54Z
2021-07-14T12:23:41Z,42.805,6.029,13.3001,4.60003,2470.39,2021-7-14T14:24:57Z
2021-07-14T12:26:44Z,42.805,6.029,13.3004,4.60017,2470.39,2021-7-14T14:28:00Z
2021-07-14T12:29:47Z,42.805,6.029,13.2990,4.60016,2470.38,2021-7-14T14:31:03Z
2021-07-14T12:32:50Z,42.805,6.029,13.2990,4.60010,2470.357,2021-7-14T14:34:06Z
2021-07-14T12:35:53Z,42.805,6.029,13.2988,4.60007,2470.38,2021-7-14T14:37:09Z
2021-07-14T12:38:57Z,42.805,6.029,13.2989,4.60015,2470.343,2021-7-14T14:40:12Z
2021-07-14T12:42:00Z,42.805,6.029,13.2985,4.60014,2470.366,2021-7-14T14:43:16Z
2021-07-14T12:45:03Z,42.805,6.029,13.2984,4.60009,2470.357,2021-7-14T14:46:19Z
2021-07-14T12:48:06Z,42.805,6.029,13.2987,4.60011,2470.366,2021-7-14T14:49:22Z
2021-07-14T12:51:09Z,42.805,6.029,13.2985,4.60009,2470.343,2021-7-14T14:52:25Z
2021-07-14T12:54:12Z,42.805,6.029,13.2990,4.60011,2470.366,2021-7-14T14:55:28Z
2021-07-14T12:57:15Z,42.805,6.029,13.2986,4.60012,2470.357,2021-7-14T14:58:31Z
2021-07-14T13:00:18Z,42.805,6.029,13.2987,4.60011,2470.366,2021-7-14T15:01:34Z
2021-07-14T13:03:22Z,42.805,6.029,13.2986,4.60009,2470.357,2021-7-14T15:04:37Z
2021-07-14T13:06:25Z,42.805,6.029,13.2991,4.60027,2470.366,2021-7-14T15:07:41Z
2021-07-14T13:09:28Z,42.805,6.029,13.3003,4.60011,2470.334,2021-7-14T15:10:44Z
2021-07-14T13:12:31Z,42.805,6.029,13.3003,4.60003,2470.404,2021-7-14T15:13:47Z
2021-07-14T13:15:34Z,42.805,6.029,13.3025,4.60027,2470.32,2021-7-14T15:16:50Z
2021-07-14T13:18:37Z,42.805,6.029,13.3041,4.60032,2470.357,2021-7-14T15:19:53Z
2021-07-14T13:21:40Z,42.805,6.029,13.3000,4.60064,2470.357,2021-7-14T15:22:56Z
2021-07-14T13:24:43Z,42.805,6.029,13.3019,4.60057,2470.366,2021-7-14T15:25:59Z
2021-07-14T13:27:47Z,42.805,6.029,13.2997,4.60007,2470.366,2021-7-14T15:29:02Z
2021-07-14T13:30:50Z,42.805,6.029,13.2999,4.60015,2470.343,2021-7-14T15:32:06Z
2021-07-14T13:33:53Z,42.805,6.029,13.3009,4.60013,2470.343,2021-7-14T15:35:09Z
2021-07-14T13:36:56Z,42.805,6.029,13.2991,4.60016,2470.32,2021-7-14T15:38:12Z
2021-07-14T13:39:59Z,42.805,6.029,13.3012,4.60040,2470.357,2021-7-14T15:41:15Z
2021-07-14T13:43:02Z,42.805,6.029,13.3054,4.60037,2470.343,2021-7-14T15:44:18Z
2021-07-14T13:46:05Z,42.805,6.029,13.3004,4.60018,2470.357,2021-7-14T15:47:21Z
2021-07-14T13:49:08Z,42.805,6.029,13.2986,4.60019,2470.32,2021-7-14T15:50:24Z
2021-07-14T13:52:12Z,42.805,6.029,13.3003,4.60010,2470.32,2021-7-14T15:53:27Z
2021-07-14T13:55:15Z,42.805,6.029,13.2990,4.60019,2470.334,2021-7-14T15:56:31Z
2021-07-14T13:58:18Z,42.805,6.029,13.2990,4.60014,2470.32,2021-7-14T15:59:34Z
2021-07-14T14:01:21Z,42.805,6.029,13.2986,4.60014,2470.343,2021-7-14T16:02:37Z
2021-07-14T14:04:24Z,42.805,6.029,13.2991,4.60021,2470.32,2021-7-14T16:05:40Z
2021-07-14T14:07:27Z,42.805,6.029,13.3000,4.60014,2470.32,2021-7-14T16:08:43Z
2021-07-14T14:10:30Z,42.805,6.029,13.2990,4.60021,2470.334,2021-7-14T16:11:46Z
2021-07-14T14:13:34Z,42.805,6.029,13.2990,4.60014,2470.32,2021-7-14T16:14:49Z
2021-07-14T14:16:37Z,42.805,6.029,13.2986,4.60002,2470.334,2021-7-14T16:17:53Z
2021-07-14T14:19:40Z,42.805,6.029,13.2987,4.60002,2470.32,2021-7-14T16:20:56Z
2021-07-14T14:22:43Z,42.805,6.029,13.2990,4.59998,2470.32,2021-7-14T16:23:59Z
2021-07-14T14:25:46Z,42.805,6.029,13.3001,4.60029,2470.32,2021-7-14T16:27:02Z
2021-07-14T14:28:49Z,42.805,6.029,13.3007,4.60029,2470.273,2021-7-14T16:30:05Z
2021-07-14T14:31:52Z,42.805,6.029,13.3018,4.60036,2470.31,2021-7-14T16:33:08Z
2021-07-14T14:34:55Z,42.805,6.029,13.3026,4.60029,2470.32,2021-7-14T16:36:11Z
2021-07-14T14:37:59Z,42.805,6.029,13.3026,4.60021,2470.32,2021-7-14T16:39:14Z
2021-07-14T14:41:02Z,42.805,6.029,13.3030,4.60029,2470.31,2021-7-14T16:42:18Z
2021-07-14T14:44:05Z,42.805,6.029,13.3029,4.60016,2470.334,2021-7-14T16:45:21Z
2021-07-14T14:47:08Z,42.805,6.029,13.3032,4.60029,2470.334,2021-7-14T16:48:24Z
2021-07-14T14:50:11Z,42.805,6.029,13.3031,4.60011,2470.32,2021-7-14T16:51:27Z
2021-07-14T14:53:14Z,42.805,6.029,13.3032,4.60014,2470.334,2021-7-14T16:54:30Z
2021-07-14T14:56:17Z,42.805,6.029,13.2998,4.60011,2470.32,2021-7-14T16:57:33Z
2021-07-14T14:59:20Z,42.805,6.029,13.2995,4.60016,2470.334,2021-7-14T17:00:36Z
2021-07-14T15:02:24Z,42.805,6.029,13.2992,4.60021,2470.357,2021-7-14T17:03:40Z
2021-07-14T15:05:27Z,42.805,6.029,13.2998,4.60014,2470.31,2021-7-14T17:06:43Z
2021-07-14T15:08:30Z,42.805,6.029,13.2992,4.60016,2470.31,2021-7-14T17:09:46Z
2021-07-14T15:11:33Z,42.805,6.029,13.2991,4.60024,2470.334,2021-7-14T17:12:49Z
2021-07-14T15:14:36Z,42.805,6.029,13.2986,4.60013,2470.297,2021-7-14T17:15:52Z